Tracking 22882 objects as of 19-Apr-2021
HD Live streaming from Space Station
objects crossing your sky now

NAVSTAR 78 (USA 293)

Track NAVSTAR 78 (USA 293) now!
NAVSTAR 78 (USA 293) is classified as:


NORAD ID: 44506
Int'l Code: 2019-056A
Perigee: 20,155.7 km
Apogee: 20,222.8 km
Inclination: 55.4 °
Period: 718.0 minutes
Semi major axis: 26560 km
RCS: Unknown
Launch date: August 22, 2019
Source: United States (US)
Launch site: AIR FORCE EASTERN TEST RANGE (AFETR)
PRN: 18
aabbcc
Your satellite tracking list
Your tracking list is empty




NASA's NSSDC Master Catalog

Two Line Element Set (TLE):
1 44506U 19056A   21108.39768160 -.00000056  00000-0  00000-0 0  9994
2 44506  55.4452  46.0052 0012631 179.7239  89.3488  2.00564371 12241
Source of the keplerian elements: AFSPC